sat.trackr.live / text

‹ back to catalog

STARLINK-37093

NORAD 68194 · 2026-050AD

PAYLOAD ACTIVE UNKNOWN

§ Identity

Operator
Country
US
Launch date
2026-03-14
Launch site
AFETR
Launch vehicle
Mass (kg)
RCS (m²)

Purposes: comms

External: N2YO · Heavens-Above · Gunter

§ Orbital elements

Epoch: 2026-05-25T01:21:08.100000Z

Period
93.85 min
Inclination
53.1584°
Eccentricity
0.0000860
Mean motion
15.34397652 rev/d
Perigee alt
462.1 km
Apogee alt
463.3 km
Semi-major
6,840.8 km
B*
6.0804e-4
RAAN
271.4327°
Arg perigee
95.9209°
Mean anomaly
264.1892°
Rev number
1,238

§ Raw data

STARLINK-370931 68194U 26050AD  26145.05634375  .00020221  00000+0  60804-3 0  99992 68194  53.1584 271.4327 0000860  95.9209 264.1892 15.34397652 12381

JSON: /api/v1/satellites/68194 · /tle

For live sub-satellite position, see the globe view (requires WebGL).

§ Visibility from observer

Set your observer location to see the next 7 days of passes ≥ 10°. The values pass through the URL so the page stays shareable.

No JS? Fill the form by hand. The geolocation button needs JavaScript.